Alexandria, LA

9:00 PM CDT on April 25, 2018 (GMT -0500)
Alexandria International

Weather History for KAEX - June, 2014

Change the Weather History Date:

Monday, June 16, 2014

  Actual Average Record
Temperature  
Mean Temperature 82 °F 80 °F  
Max Temperature 90 °F 91 °F 105 °F (1901)
Min Temperature 73 °F 70 °F 58 °F (1917)
Cooling Degree Days 17 15  
Month to date cooling degree days 247 226  
Year to date cooling degree days 658 680  
Since 1 June cooling degree days 247 226  
Growing Degree Days 31 (Base 50)    
Moisture  
Dew Point 72 °F    
Average Humidity 76    
Maximum Humidity 100    
Minimum Humidity 51    
Precipitation  
Precipitation 0.35 in 0.19 in 3.99 in (1976)
Month to date precipitation 1.61 2.43  
Year to date precipitation 19.83 26.43  
Sea Level Pressure  
Sea Level Pressure 30.07 in    
Wind  
Wind Speed 7 mph (SSE)    
Max Wind Speed 20 mph    
Max Gust Speed 25 mph    
Visibility 7 miles    
Events Rain    
T = Trace of Precipitation, MM = Missing Value Source: NWS Daily Summary

Daily Weather History Graph

Daily Weather History Graph

Search for Another Location

Airport or City:

Astronomy

Jun. 16, 2014 Rise Set
Actual Time 6:05 AM CDT 8:16 PM CDT
Civil Twilight 5:37 AM CDT 8:44 PM CDT
Nautical Twilight 5:03 AM CDT 9:18 PM CDT
Astronomical Twilight 4:26 AM CDT 9:55 PM CDT
Moon 11:23 PM CDT (6/16) 9:57 AM CDT (6/16)
Length of Visible Light 15h 06m
Length of Day
14h 10m
Waning Gibbous, 83% of the Moon is Illuminated
Jun 16
Waning Gibbous
Jun 19
Last Quarter
Jun 27
New
Jul 5
First Quarter
Jul 12
Full

Hourly Weather History & Observations

Time (CDT) Temp. Heat Index Dew Point Humidity Pressure Visibility Wind Dir Wind Speed Gust Speed Precip Events Conditions
12:53 AM 73.9 °F - 71.1 °F 91% 30.02 in 9.0 mi SSE 6.9 mph - N/A   Clear
1:53 AM 73.9 °F - 71.1 °F 91% 30.01 in 8.0 mi SE 6.9 mph - N/A   Clear
2:53 AM 73.9 °F - 71.1 °F 91% 30.03 in 8.0 mi SE 8.1 mph - N/A   Clear
3:53 AM 73.9 °F - 72.0 °F 93% 30.04 in 6.0 mi SE 5.8 mph - N/A   Scattered Clouds
4:08 AM 73.9 °F - 72.0 °F 93% 30.04 in 6.0 mi SE 8.1 mph - N/A   Mostly Cloudy
4:21 AM 73.9 °F - 72.0 °F 93% 30.04 in 6.0 mi SE 6.9 mph - N/A   Mostly Cloudy
4:34 AM 73.9 °F - 73.0 °F 97% 30.05 in 6.0 mi SE 6.9 mph - N/A   Overcast
4:41 AM 73.9 °F - 72.0 °F 93% 30.05 in 6.0 mi SE 6.9 mph - N/A   Overcast
4:53 AM 73.9 °F - 72.0 °F 93% 30.06 in 6.0 mi SSE 5.8 mph - N/A   Overcast
5:00 AM 73.9 °F - 72.0 °F 93% 30.06 in 6.0 mi SE 5.8 mph - N/A   Scattered Clouds
5:53 AM 73.0 °F - 72.0 °F 96% 30.08 in 6.0 mi SE 4.6 mph - N/A   Partly Cloudy
6:53 AM 73.9 °F - 73.0 °F 97% 30.09 in 6.0 mi SE 6.9 mph - N/A   Scattered Clouds
7:37 AM 75.9 °F - 73.9 °F 94% 30.10 in 7.0 mi SE 6.9 mph - N/A   Mostly Cloudy
7:44 AM 75.9 °F - 73.9 °F 94% 30.10 in 8.0 mi SE 8.1 mph - N/A   Mostly Cloudy
7:53 AM 75.9 °F - 73.9 °F 94% 30.12 in 8.0 mi SE 6.9 mph - N/A   Mostly Cloudy
8:53 AM 79.0 °F - 73.9 °F 84% 30.14 in 9.0 mi SSE 5.8 mph - N/A   Overcast
9:07 AM 81.0 °F 86.7 °F 75.0 °F 82% 30.13 in 9.0 mi SE 6.9 mph - N/A   Mostly Cloudy
9:19 AM 81.0 °F 86.2 °F 73.9 °F 79% 30.13 in 10.0 mi SSE 5.8 mph - N/A   Scattered Clouds
9:53 AM 82.9 °F 90.2 °F 75.0 °F 77% 30.13 in 10.0 mi South 6.9 mph - N/A   Scattered Clouds
10:53 AM 84.0 °F 90.2 °F 73.0 °F 69% 30.12 in 9.0 mi Variable 3.5 mph - N/A   Mostly Cloudy
11:12 AM 84.0 °F 90.2 °F 73.0 °F 69% 30.11 in 9.0 mi SSW 8.1 mph - N/A   Mostly Cloudy
11:53 AM 87.1 °F 93.6 °F 72.0 °F 61% 30.11 in 9.0 mi South 6.9 mph - N/A   Mostly Cloudy
12:53 PM 89.1 °F 97.0 °F 73.0 °F 59% 30.09 in 9.0 mi SSE 8.1 mph - N/A   Partly Cloudy
1:53 PM 89.1 °F 94.1 °F 70.0 °F 53% 30.07 in 9.0 mi South 10.4 mph - N/A   Scattered Clouds
2:18 PM 84.0 °F 87.0 °F 68.0 °F 58% 30.07 in 10.0 mi WSW 11.5 mph - N/A   Scattered Clouds
2:53 PM 86.0 °F 88.8 °F 66.9 °F 53% 30.07 in 10.0 mi West 8.1 mph - N/A   Clear
3:53 PM 84.9 °F 91.4 °F 73.0 °F 67% 30.06 in 3.0 mi SW 18.4 mph 23.0 mph 0.01 in Rain Rain
3:56 PM 82.0 °F 86.7 °F 72.0 °F 71% 30.05 in 1.5 mi SW 11.5 mph 23.0 mph 0.10 in Rain Heavy Rain
4:05 PM 77.0 °F - 72.0 °F 84% 30.05 in 0.5 mi SW 6.9 mph 20.7 mph 0.28 in Rain Heavy Rain
4:16 PM 78.1 °F - 72.0 °F 81% 30.04 in 2.0 mi WNW 4.6 mph - 0.34 in Rain Rain
4:24 PM 79.0 °F - 73.0 °F 82% 30.04 in 9.0 mi Calm Calm - 0.34 in Rain Light Rain
4:53 PM 84.0 °F 91.9 °F 75.0 °F 74% 30.04 in 9.0 mi Calm Calm - 0.34 in   Overcast
5:53 PM 87.1 °F 93.6 °F 72.0 °F 61% 30.04 in 9.0 mi SSE 4.6 mph - N/A   Clear
6:53 PM 84.0 °F 90.2 °F 73.0 °F 69% 30.04 in 9.0 mi SSE 4.6 mph - N/A   Mostly Cloudy
7:53 PM 82.0 °F 86.7 °F 72.0 °F 71% 30.05 in 9.0 mi SSE 10.4 mph - N/A   Clear
8:53 PM 79.0 °F - 71.1 °F 77% 30.05 in 10.0 mi SSE 6.9 mph - N/A   Clear
9:53 PM 77.0 °F - 71.1 °F 82% 30.06 in 8.0 mi SE 6.9 mph - N/A   Clear
10:53 PM 75.0 °F - 72.0 °F 90% 30.08 in 8.0 mi SE 5.8 mph - N/A   Clear
11:53 PM 75.0 °F - 72.0 °F 90% 30.08 in 7.0 mi SE 6.9 mph - N/A   Clear